www.pogodaiklimat.ru

Погода и климат >> Архив погоды >> Россия >> Свердловская область >> Алапаевск


ПОГОДА в Алапаевске

  • Прогноз погоды в Алапаевске
  • Монитор погоды в Алапаевске

АРХИВ ПОГОДЫ в Алапаевске

Время (UTC), дата Ветер
(напр.,м/с)
 
Видим.   Явления Облачность Т
(С)
Тd
(С)
f
(%)
Тe
(С)
Тes
(С)
Комфортность P
(гПа)
Po
(гПа)
Тmin
(С)
Tmax
(С)
R
(мм)
R24
(мм)
S
(см)
18 18.06 ЮЗ 1 20 км 3/0
[Ac trans]
+11.2 +5.3 67 +11 +11 1007.2 991.7
21 18.06 З 1 20 км 3/0
[Ac trans]
+9.7 +5.4 75 +9 +9 1007.3 991.7
00 19.06 З 1 50 км 9/0
[Ac trans]
+11.8 +5.5 65 +12 +12 1007.7 992.2
03 19.06 штиль 0 50 км слаб. дождь 10/0
[Ac As]
+12.1 +7.3 72 +12 +14 1008.2 992.7 +9.2
06 19.06 ЮЗ 1 50 км слаб. ливневой дождь 9/8 600 м
[Cb cap Ac trans]
+16.1 +7.5 57 +17 +19 1007.7 992.5
09 19.06 ЮЗ 2 50 км {ливн. осадки} 9/9 600 м
[Cb cap]
+19.6 +7.7 46 +21 +22 комфорт 1007.7 992.6
12 19.06 ЮЗ 1 50 км {ливн. осадки} 8/0
[Ac trans]
+19.3 +9.0 51 +21 +26 комфорт 1007.5 992.4
15 19.06 ЮЗ 1 50 км 4/0
[Ac trans]
+19.2 +10.5 57 +21 +22 комфорт 1007.4 992.4 +21.3
18 19.06 ЮЗ 1 20 км 1/0
[Ac trans]
+13.7 +10.2 79 +14 +14 1008.2 992.9
21 19.06 ЮЗ 1 20 км 9/0
[Ci]
+12.1 +10.3 89 +12 +12 1008.7 993.2
00 20.06 ЮЗ 1 50 км 10/0
[Ac trans Ci]
+12.5 +11.0 91 +12 +13 1009.3 993.9
03 20.06 ЮЗ 1 50 км 10/0
[Ac As]
+15.6 +12.3 81 +16 +18 1010.2 994.9 +11.8
06 20.06 ЮЗ 1 50 км 9/3 1000 м
[Cu hum Ac lent Ci fib]
+23.3 +13.6 54 +27 +33 душно 1009.5 994.7
09 20.06 ЮЗ 2 50 км 9/8 600 м
[Cb cap Ci fib]
+24.4 +11.5 44 +26 +28 жарко 1008.0 993.2
12 20.06 С 1 50 км гроза без осадков {ливн. осадки} 9/8 600 м
[Cb cap Ac lent]
+16.7 +15.2 91 +18 +19 1007.9 992.8
15 20.06 штиль 0 50 км {гроза, ливн. осадки} 9/8 600 м
[Cb cap Ac lent]
+17.6 +15.6 88 +18 +18 1006.5 991.4 +26.2 4
18 20.06 ЮЗ 1 20 км в посл. час ливневой дождь {гроза} 9/6 600 м
[Cb cap Ac lent]
+14.1 +12.7 91 +14 +14 1007.6 992.3
21 20.06 штиль 0 20 км 3/0
[Ac lent]
+12.3 +11.1 92 +12 +12 1008.0 992.6
00 21.06 СЗ 3 50 км 4/0
[Ac lent]
+13.0 +10.8 86 +12 +12 1009.3 993.9
03 21.06 СЗ 4 50 км 1/1 1000 м
[Cu hum]
+15.2 +10.0 71 +14 +17 1010.5 995.2 +12.0 3
06 21.06 СЗ 3 50 км 8/8 600 м
[Cb cap]
+18.2 +9.5 57 +19 +21 1010.9 995.8
09 21.06 СЗ 4
{11}
50 км 8/6 1000 м
[Cu med, cong Ci fib]
+19.9 +6.0 40 +21 +24 комфорт 1010.8 995.7
12 21.06 С 3
{11}
50 км 6/6 1000 м
[Cu med, cong]
+17.1 +4.2 42 +17 +19 1012.8 997.6
15 21.06 С 2 50 км 8/8 1000 м
[Sc diur, vesp]
+15.3 +1.6 39 +15 +16 1015.0 999.6 +20.2
18 21.06 З 1 20 км ясно +10.2 +1.6 55 +10 +10 1016.6 1000.9
21 21.06 З 1 20 км 8/0
[Ac trans]
+6.8 +2.3 73 +6 +6 1017.2 1001.3
00 22.06 ЮЗ 1 50 км ясно +5.6 +2.8 82 +4 +5 1018.6 1002.6
03 22.06 СЗ 2 50 км ясно +11.6 +3.7 58 +11 +16 1019.1 1003.4 +4.8
06 22.06 СЗ 2 50 км 9/5 1000 м
[Cu med, cong Ci fib]
+18.0 +3.6 38 +19 +24 1018.5 1003.2
09 22.06 СЗ 2 50 км 8/6 1000 м
[Cu med, cong Ci fib]
+20.4 +2.9 31 +21 +27 комфорт 1018.0 1002.8
12 22.06 С 1 50 км 9/1 1000 м
[Cu hum Ac trans]
+21.5 +4.3 32 +22 +25 комфорт 1016.6 1001.5
15 22.06 Ю 1 50 км 10/0
[Ac As]
+18.1 +9.3 56 +19 +20 1015.2 1000.0 +22.2
18 22.06 Ю 1 20 км 10/0
[Ac As]
+16.0 +7.2 56 +17 +17 1014.0 998.7
21 22.06 ЮЗ 1 20 км 10/0
[Ac As]
+16.6 +7.5 55 +18 +18 1011.3 996.0
00 23.06 ЮЗ 1 50 км 9/0
[Ac trans Ci fib]
+16.5 +10.7 69 +17 +18 1010.6 995.4
03 23.06 ЮЗ 1 50 км 9/0
[Ac trans]
+19.5 +14.1 71 +22 +25 комфорт 1009.5 994.5 +15.8
06 23.06 ЮЗ 1 50 км в посл. час ливневой дождь 9/6 600 м
[Cb cap Ac As]
+19.2 +15.7 80 +22 +25 комфорт 1008.6 993.5
09 23.06 ЮЗ 1 50 км в посл. час ливневой дождь 9/8 600 м
[Cb cap Ac trans]
+20.3 +17.6 84 +25 +27 комфорт 1007.7 992.8
12 23.06 З 2 50 км {ливн. осадки} 9/0
[Ac As]
+23.3 +17.5 70 +29 +31 душно 1006.5 991.7
15 23.06 СЗ 2 50 км 8/4 1000 м
[Cu med, cong Ac trans]
+23.8 +16.9 65 +27 +28 жарко 1006.7 991.9 +24.5 1
18 23.06 З 1 20 км {гроза} 6/6 600 м
[Cb cap]
+18.0 +16.6 92 +19 +19 1008.4 993.3
21 23.06 З 1 20 км 3/0
[Ac trans]
+17.8 +15.9 89 +19 +19 1008.6 993.5
00 24.06 З 1 50 км 3/0
[Ac trans]
+17.3 +15.4 89 +18 +18 1009.8 994.6
03 24.06 СЗ 2 50 км 4/0
[Ac trans]
+20.7 +15.1 70 +24 +28 комфорт 1010.8 995.8 +16.7
06 24.06 СЗ 4 50 км 9/3 1000 м
[Cu hum Ac lent Ci fib]
+25.0 +8.2 34 +25 +29 комфорт 1011.0 996.2
09 24.06 С 2 50 км 6/6 1000 м
[Cu hum]
+26.4 +7.4 30 +26 +32 жарко 1011.3 996.5
12 24.06 СЗ 2 50 км 9/3 1000 м
[Cu hum Ci fib]
+25.7 +5.9 28 +25 +29 комфорт 1011.7 996.9
15 24.06 штиль 0 50 км 9/3 1000 м
[Cu hum Ci]
+23.6 +7.7 36 +24 +25 комфорт 1012.1 997.2 +26.5
18 24.06 штиль 0 20 км 4/4 600 м
[Sc diur, vesp]
+15.0 +11.6 80 +15 +15 1013.2 997.8
21 24.06 штиль 0 20 км 8/8 600 м
[Sc]
+12.8 +10.6 86 +12 +12 1013.7 998.2
00 25.06 штиль 0 50 км 9/9 600 м
[Cb cap]
+13.2 +8.9 75 +13 +13 1013.7 998.2
03 25.06 штиль 0 50 км 9/3 600 м
[Cb cap Ac lent Ci fib]
+15.5 +10.0 70 +15 +18 1013.7 998.4 +11.9
06 25.06 В 1 50 км 10/0
[Ac As]
+17.9 +9.1 56 +19 +24 1012.8 997.6
09 25.06 ЮВ 1 50 км 9/0
[Ac trans]
+19.4 +9.7 53 +21 +29 комфорт 1012.9 997.7
12 25.06 штиль 0 50 км слаб. дождь 10/0
[Ac As]
+14.3 +11.5 83 +14 +17 1014.2 998.8

 

Местоположение метеостанции Алапаевск (Свердловская область, Россия): широта 57.87 долгота 61.70 высота над уровнем моря 130 м.

В архиве по умолчанию представлена погода в Алапаевске за последнюю неделю. Архивные данные за месяц целиком и за предыдущие месяцы, начиная с января 2011 года, Вы можете получить, выбрав интересующий диапазон дат из раскрывающегося списка и нажав кнопку "Ввод!".


*Определитесь, кто Вы:
робот инопланетянин человек

Внимание! Время в таблицах - всемирное. Для получения местного времени необходимо прибавить поправку, которая равна 5 ч.

Смотрите также архив погоды в соседних городах и на ближайших метеорологических станциях:

Погода в Артемовском (Свердловская область, Россия) (57 км)
Погода в Ирбите (Свердловская область, Россия) (80 км)
Погода в Невьянске (Свердловская область, Россия) (96 км)
Погода в Нижнем Тагиле (Свердловская область, Россия) (96 км)
Погода в Туринске (Свердловская область, Россия) (119 км)
Погода в Верхотурье (Свердловская область, Россия) (123 км)
Погода в Кушве (Свердловская область, Россия) (125 км)
Погода в Камышлове (Свердловская область, Россия) (129 км)
Погода в Висиме (Свердловская область, Россия) (131 км)
Погода в Екатеринбурге (Свердловская область, Россия) (132 км)

Пояснения к столбцам:

Ветер - указаны скорость ветра в м/с - средняя за 10 мин, порывы в срок и между сроками (в фигурных скобках) и направление, откуда дует ветер: С - северный, СВ - северо-восточный, В - восточный, ЮВ - юго-восточный, Ю - южный, ЮЗ - юго-западный, З - западный, СЗ - северо-западный.
Видимость - горизонтальная дальность видимости в метрах или километрах. При видимости от 1 до 10 км при отсутствии осадков обычно наблюдается дымка, при ухудшении видимости до 1 км и менее - туман. В сухую погоду видимость может ухудшаться дымом, пылью или мглою.
Явления - указаны атмосферные явления, наблюдавшиеся в срок или в последний час перед сроком; фигурными скобками обозначены явления, наблюдавшиеся между сроками (за 1-3 часа до срока); квадратными скобками обозначены град или гололедные отложения с указанием их диаметра в мм.
Облачность - указаны через наклонную черту общая и нижняя облачность в баллах и высота нижней границы облаков в метрах; квадратными скобками обозначены формы облаков: Ci - перистые, Cs - перисто-слоистые, Cc - перисто-кучевые, Ac - высококучевые, As - высокослоистые, Sc - слоисто-кучевые, Ns - слоисто-дождевые, Cu - кучевые, Cb - кучево-дождевые. Подробнее классификацию облаков см. в Атласе облаков (PDF).
T - Температура воздуха - температура, измеренная на высоте 2 м над землей.
Td - Температура точки росы - температура, при понижении до которой содержащийся в воздухе водяной пар достигнет насыщения.
f - Относительная влажность воздуха - влажноcть воздуха, измеренная на высоте 2 м над землей.
Te - Эффективная температура - температура, которую ощущает одетый по сезону человек в тени. Характеристика душности погоды. При расчете учитывается влияние влажности воздуха и скорости ветра на теплоощущения человека.
Tes - Эффективная температура на солнце - температура, которую ощущает человек, с поправкой на солнечный нагрев. Характеристика знойности погоды. Зависит от высоты солнца над горизонтом, облачности и скорости ветра. Ночью, в пасмурную погоду, а также при ветре 12 м/с и более поправка равна нулю.
P - Атмосферное давление - приведенное к уровню моря атмосферное давление.
Po - Атмосферное давление - измеренное на уровне метеостанции атмосферное давление.
Tmin - Минимальная температура - минимум температуры воздуха на высоте 2 м над землей.
Tmax - Максимальная температура - максимум температуры воздуха на высоте 2 м над землей.
R - Количество осадков - Количество выпавших осадков за период времени, мм. При наведении курсора мыши на число - период времени, за который выпало указанное количество осадков.
R24 - Количество осадков - Количество выпавших осадков за 24 часа, мм.
S - Снежный покров - Высота снежного покрова, см. При наведении курсора мыши на число - состояние снежного покрова и степень покрытия местности в баллах.